Date String (YYYY-MM-DD hh:mm:ss) UTC,Instrument flags,absolute air pressure of the measurement (hPa),sample flow rate (lpm),inlet stack bypass flow (lpm),air temperature of the measurement (°C),ambient temperature measured by the external sensor (°C),aerosol sample conditioner tube jacket temperature (°C),OPC LED temperature (°C),internal box temperature (°C),relative humidity of the measurement (%),span deviation,mass concentration of particles derived from Lorenz-Mie calculation of OPC scattering (μg/m³),mass concentration of particles derived from Lorenz-Mie calculation of OPC scattering (μg/m³),mass concentration of particles derived from Lorenz-Mie calculation of OPC scattering (μg/m³)
DateTimeUTC,F1_M11,P_M11,Q1_M11,Q2_M11,T1_M11,T2_M11,T3_M11,T4_M11,T5_M11,U1_M11,ZSPAN_M11,X0_M11,X2_M11,X1_M11
2024-03-13 15:00:00,SystemResetWarning,0821.8,5.01,000.00,020.4,019.8,000.0,028.9,022.2,26.6,0000.0,0009.46,0004.32,0003.47
2024-03-13 15:01:00,SystemResetWarning,0821.8,5.00,000.00,020.4,019.8,000.0,028.9,022.2,26.5,0000.0,0009.79,0004.25,0003.43
2024-03-13 15:02:00,SystemResetWarning,0821.8,5.00,000.00,020.4,019.8,000.0,028.9,022.2,26.5,0000.0,0009.79,0004.25,0003.41
2024-03-13 15:03:00,SystemResetWarning,0821.8,5.00,000.00,020.4,019.8,000.0,028.9,022.2,26.5,0000.0,0010.15,0004.29,0003.39
2024-03-13 15:04:00,SystemResetWarning,0821.8,4.98,000.00,020.4,019.8,000.0,028.9,022.2,26.5,0000.0,0010.90,0004.29,0003.38
2024-03-13 15:05:00,SystemResetWarning,0821.8,5.01,000.00,020.4,019.8,000.0,028.9,022.2,26.5,0000.0,0011.00,0004.25,0003.36
2024-03-13 15:06:00,SystemResetWarning,0821.8,5.00,000.00,020.4,019.8,000.0,028.9,022.2,26.4,0000.0,0011.06,0004.23,0003.34
2024-03-13 15:07:00,SystemResetWarning,0821.8,5.01,000.00,020.4,019.8,000.0,028.9,022.2,26.5,0000.0,0011.64,0004.19,0003.32
2024-03-13 15:08:00,SystemResetWarning,0821.8,4.99,000.00,020.4,019.8,000.0,028.9,022.2,26.6,0000.0,0011.97,0004.18,0003.31
2024-03-13 15:09:00,SystemResetWarning,0821.8,5.00,000.00,020.4,019.8,000.0,028.9,022.2,26.7,0000.0,0011.61,0004.17,0003.29
2024-03-13 15:10:00,SystemResetWarning,0821.8,5.01,000.00,020.4,019.8,000.0,028.9,022.2,26.8,0000.0,0011.39,0004.16,0003.28
2024-03-13 15:11:00,SystemResetWarning,0821.8,5.01,000.00,020.4,019.8,000.0,028.9,022.2,26.8,0000.0,0012.33,0004.16,0003.28
2024-03-13 15:12:00,SystemResetWarning,0821.8,5.00,000.00,020.4,019.8,000.0,028.9,022.2,26.8,0000.0,0012.63,0004.22,0003.29
2024-03-13 15:13:00,SystemResetWarning,0821.8,4.99,000.00,020.4,019.8,000.0,028.9,022.2,26.7,0000.0,0012.78,0004.19,0003.29
2024-03-13 15:14:00,SystemResetWarning,0821.8,5.00,000.00,020.4,019.8,000.0,028.9,022.2,26.7,0000.0,0012.74,0004.13,0003.28
2024-03-13 15:15:00,SystemResetWarning,0821.9,5.00,000.00,020.4,019.8,000.0,028.9,022.2,26.7,0000.0,0011.68,0004.12,0003.29
2024-03-13 15:16:00,SystemResetWarning,0821.9,5.00,000.00,020.4,019.8,000.0,028.9,022.2,26.8,0000.0,0011.71,0004.14,0003.30
2024-03-13 15:17:00,SystemResetWarning,0821.9,5.00,000.00,020.4,019.8,000.0,028.9,022.2,26.8,0000.0,0012.37,0004.16,0003.30
2024-03-13 15:18:00,SystemResetWarning,0822.0,5.00,000.00,020.4,019.8,000.0,028.9,022.2,26.8,0000.0,0011.65,0004.14,0003.29
2024-03-13 15:19:00,SystemResetWarning,0822.0,5.00,000.00,020.4,019.8,000.0,028.9,022.2,26.8,0000.0,0012.51,0004.12,0003.28
2024-03-13 15:20:00,SystemResetWarning,0822.0,5.01,000.00,020.4,019.8,000.0,028.9,022.2,26.9,0000.0,0012.90,0004.11,0003.27
2024-03-13 15:21:00,SystemResetWarning,0821.9,5.00,000.00,020.4,019.8,000.0,028.9,022.2,26.9,0000.0,0013.40,0004.11,0003.26
2024-03-13 15:22:00,SystemResetWarning,0822.0,5.01,000.00,020.4,019.8,000.0,028.9,022.2,27.0,0000.0,0012.85,0004.11,0003.23
2024-03-13 15:23:00,SystemResetWarning,0822.0,4.99,000.00,020.4,019.8,000.0,028.9,022.3,26.9,0000.0,0012.32,0004.03,0003.20
2024-03-13 15:24:00,SystemResetWarning,0822.0,5.00,000.00,020.4,019.8,000.0,028.9,022.2,26.9,0000.0,0012.53,0004.05,0003.18
2024-03-13 15:25:00,SystemResetWarning,0822.0,4.99,000.00,020.4,019.8,000.0,028.9,022.2,26.8,0000.0,0012.69,0004.07,0003.18
2024-03-13 15:26:00,SystemResetWarning,0822.0,5.01,000.00,020.4,019.8,000.0,028.9,022.2,26.8,0000.0,0013.15,0004.10,0003.18
2024-03-13 15:27:00,SystemResetWarning,0821.9,5.01,000.00,020.4,019.8,000.0,028.9,022.2,26.9,0000.0,0012.93,0004.17,0003.18
2024-03-13 15:28:00,SystemResetWarning,0821.9,5.00,000.00,020.4,019.8,000.0,028.9,022.2,26.9,0000.0,0012.60,0004.17,0003.17
2024-03-13 15:29:00,SystemResetWarning,0821.9,5.00,000.00,020.4,019.8,000.0,028.9,022.2,27.0,0000.0,0013.09,0004.21,0003.19
2024-03-13 15:30:00,SystemResetWarning,0821.9,4.99,000.00,020.4,019.8,000.0,028.9,022.3,27.0,0000.0,0012.11,0004.22,0003.20
2024-03-13 15:31:00,SystemResetWarning,0821.8,4.99,000.00,020.4,019.8,000.0,028.9,022.3,27.0,0000.0,0011.62,0004.22,0003.20
2024-03-13 15:32:00,SystemResetWarning,0821.8,5.01,000.00,020.4,019.8,000.0,028.9,022.3,27.0,0000.0,0010.91,0004.17,0003.20
2024-03-13 15:33:00,SystemResetWarning,0821.8,5.01,000.00,020.4,019.8,000.0,028.9,022.3,27.1,0000.0,0010.62,0004.15,0003.21
2024-03-13 15:34:00,SystemResetWarning,0821.8,4.99,000.00,020.4,019.8,000.0,028.9,022.3,27.1,0000.0,0010.72,0004.16,0003.21
2024-03-13 15:35:00,SystemResetWarning,0821.9,4.99,000.00,020.5,019.9,000.0,028.9,022.2,27.1,0000.0,0010.37,0004.17,0003.21
2024-03-13 15:36:00,SystemResetWarning,0821.9,5.01,000.00,020.4,019.9,000.0,028.9,022.3,27.1,0000.0,0010.05,0004.13,0003.21
2024-03-13 15:37:00,SystemResetWarning,0821.9,5.01,000.00,020.5,019.8,000.0,028.9,022.3,27.1,0000.0,0010.01,0004.08,0003.19
2024-03-13 15:38:00,SystemResetWarning,0821.9,5.00,000.00,020.5,019.9,000.0,028.9,022.3,27.1,0000.0,0009.88,0004.00,0003.18
2024-03-13 15:39:00,SystemResetWarning,0821.9,5.00,000.00,020.5,019.9,000.0,028.9,022.3,27.0,0000.0,0009.49,0003.94,0003.16
2024-03-13 15:40:00,SystemResetWarning,0821.9,5.00,000.00,020.5,019.9,000.0,028.9,022.3,26.9,0000.0,0009.09,0003.88,0003.15
2024-03-13 15:41:00,SystemResetWarning,0821.9,4.99,000.00,020.5,019.9,000.0,028.9,022.3,26.9,0000.0,0009.40,0003.87,0003.13
2024-03-13 15:42:00,SystemResetWarning,0821.9,5.01,000.00,020.5,019.9,000.0,028.9,022.3,26.7,0000.0,0010.03,0003.85,0003.13
2024-03-13 15:43:00,SystemResetWarning,0821.9,5.01,000.00,020.5,019.9,000.0,028.9,022.3,26.8,0000.0,0010.70,0003.88,0003.14
2024-03-13 15:44:00,SystemResetWarning,0821.9,5.01,000.00,020.5,019.9,000.0,028.9,022.3,26.9,0000.0,0010.62,0003.87,0003.13
2024-03-13 15:45:00,SystemResetWarning,0821.9,5.00,000.00,020.5,019.9,000.0,028.9,022.3,26.8,0000.0,0010.20,0003.87,0003.14
2024-03-13 15:46:00,SystemResetWarning,0821.9,4.99,000.00,020.5,019.9,000.0,028.9,022.3,26.7,0000.0,0010.00,0003.82,0003.15
2024-03-13 15:47:00,SystemResetWarning,0821.9,4.99,000.00,020.5,019.9,000.0,028.9,022.3,26.8,0000.0,0010.56,0003.80,0003.16
2024-03-13 15:48:00,SystemResetWarning,0822.0,4.99,000.00,020.5,019.9,000.0,028.9,022.3,27.0,0000.0,0010.11,0003.80,0003.16
2024-03-13 15:49:00,SystemResetWarning,0822.0,5.01,000.00,020.5,019.9,000.0,028.9,022.3,27.2,0000.0,0010.28,0003.82,0003.17
2024-03-13 15:50:00,SystemResetWarning,0822.0,5.01,000.00,020.5,019.9,000.0,029.0,022.3,27.2,0000.0,0010.89,0003.91,0003.19
2024-03-13 15:51:00,SystemResetWarning,0822.0,4.99,000.00,020.5,019.9,000.0,029.0,022.3,27.2,0000.0,0011.38,0003.99,0003.19
2024-03-13 15:52:00,SystemResetWarning,0822.0,4.99,000.00,020.5,019.9,000.0,029.0,022.3,27.2,0000.0,0011.11,0004.01,0003.19
2024-03-13 15:53:00,SystemResetWarning,0822.0,5.01,000.00,020.5,019.9,000.0,029.0,022.3,27.1,0000.0,0010.48,0004.01,0003.19
2024-03-13 15:54:00,SystemResetWarning,0822.0,5.01,000.00,020.5,019.9,000.0,029.0,022.3,27.2,0000.0,0009.80,0003.98,0003.18
2024-03-13 15:55:00,SystemResetWarning,0821.9,4.99,000.00,020.5,019.9,000.0,029.0,022.4,27.0,0000.0,0010.05,0003.95,0003.17
2024-03-13 15:56:00,SystemResetWarning,0821.9,5.00,000.00,020.5,020.0,000.0,029.0,022.4,27.0,0000.0,0010.22,0003.97,0003.17
2024-03-13 15:57:00,SystemResetWarning,0821.9,5.00,000.00,020.5,020.0,000.0,029.0,022.4,27.1,0000.0,0010.43,0003.98,0003.16
2024-03-13 15:58:00,SystemResetWarning,0822.0,5.00,000.00,020.5,020.0,000.0,029.0,022.4,27.1,0000.0,0010.45,0004.01,0003.15
2024-03-13 15:59:00,SystemResetWarning,0821.9,5.00,000.00,020.5,020.0,000.0,029.0,022.4,26.9,0000.0,0010.10,0004.04,0003.15
